Weather Roundup
Issued by NWS Springfield, MO

Home | Current Version | Previous Version | Text Only | Print | Product List | Glossary On
Versions: 1 2 3 4 5 6 7 8 9 10 11 12 13 14 15 16 17 18 19 20 21 22 23 24 25 26 27 28 29 30 31 32 33 34 35 36 37 38 39 40 41 42 43 44 45 46 47 48 49 50
000
NZUS99 KSGF 281307
HRRSGF

HOURLY WEATHER
NATIONAL WEATHER SERVICE SPRINGFIELD MO
800 AM CDT FRI AUG 28 2015

......SGF CWA......

CITY           SKY/WX    TMP DP  RH WIND       PRES   REMARKS
SPRINGFIELD    MOSUNNY   64  58  80 S12       30.08R
JOPLIN         PTSUNNY   68  61  78 S12       30.04R
WEST PLAINS    MOSUNNY   60  57  89 CALM      30.13R
ROLLA          PTSUNNY   62  58  86 S7        30.09F
OSAGE BEACH    CLOUDY    61  55  82 SE3       30.08S
BRANSON        MOSUNNY   59  57  94 CALM      30.11R

......SURROUNDING SGF CWA......

CITY           SKY/WX    TMP DP  RH WIND       PRES   REMARKS
CHANUTE        CLOUDY    68  65  90 S13       29.98S
COFFEYVILLE    CLOUDY    67  65  93 S12       29.99S
EMPORIA        CLOUDY    69  65  86 CALM      29.98R
GROVE OK       CLOUDY    66  66 100 CALM      30.05R
ROGERS AR      MOSUNNY   65  60  84 SE6       30.09R
SILOAM SPRINGS CLOUDY    64  55  72 SE6       30.06R
NEAR YELLVILLE SUNNY     59  54  82 CALM      30.08R

......KANSAS AND MISSOURI......

CITY           SKY/WX    TMP DP  RH WIND       PRES   REMARKS
KANSAS CTY INT CLOUDY    69  63  81 S14       29.94F
DOWNTOWN KC    CLOUDY    71  64  78 S10       29.96R
COLUMBIA       PTSUNNY   63  60  90 SE8       30.07F
SEDALIA        CLOUDY    67  59  75 S12       30.05S
ST JOSEPH      LGT RAIN  69  65  86 S10       29.92F
ST LOUIS       PTSUNNY   67  60  78 SE5       30.12S
SPIRIT OF STL  PTSUNNY   62  60  93 CALM      30.10S
KIRKSVILLE     CLOUDY    64  59  83 SE8       30.04S
WICHITA        CLOUDY    72  67  84 S15       29.93S
TOPEKA         LGT RAIN  70  66  87 S10       29.93R
OLATHE         CLOUDY    67  63  87 S12       29.96S

......TENNESSEE......

CITY           SKY/WX    TMP DP  RH WIND       PRES   REMARKS
MEMPHIS        MOSUNNY   69  59  70 E6        30.08R
NASHVILLE      MOSUNNY   67  58  72 CALM      30.14R

......ARKANSAS.......

CITY           SKY/WX    TMP DP  RH WIND       PRES   REMARKS
FAYETTEVILLE   MOSUNNY   63  60  90 E3        30.08R
FT SMITH       MOSUNNY   66  61  84 NE7       30.06R
LITTLE ROCK    MOSUNNY   66  62  87 NE5       30.07R

......OKLAHOMA.......

CITY           SKY/WX    TMP DP  RH WIND       PRES   REMARKS
TULSA          CLOUDY    69  66  90 S8        30.01R
PONCA CITY     CLOUDY    72  66  81 SE10      29.95R
MCALESTER      MOSUNNY   69  63  81 S5        30.04R
OKLAHOMA CITY  LGT RAIN  70  64  81 SE9       29.99S

......IOWA............

CITY           SKY/WX    TMP DP  RH WIND       PRES   REMARKS
DES MOINES     LGT RAIN  65  61  87 SE15      29.96F
QUAD CITIES    CLOUDY    62  58  86 E6        30.10F

......ILLINOIS........

CITY           SKY/WX    TMP DP  RH WIND       PRES   REMARKS
QUINCY         CLOUDY    63  59  87 SE7       30.09R
CHICAGO        CLOUDY    64  58  80 S5        30.14R



USA.gov is the U.S. government's official web portal to all federal, state and local government web resources and services.